Погода в Таушкасах

Россия / Чувашская Республика     55°51′42″N   47°34′22″E
темп.,
°C
ветер,
м/с
пор.,
м/с
влажн.,
%
обл.,
%
осадки,
мм/ч
давл.,
гПа
погр.,
м
29 мая, вс
вс2900:00+8зюз8159094 0.0 1005565
03:00+7юз613943 0.0 1008416
06:00+9зюз613885 0.0 1010503
09:00+14юз711650 0.0 10111301
12:00+16зюз8115448 0.2 10122146
15:00+16зюз71062100 0.5 10131681
18:00+13юз6118088 1.2 1014679
21:00+10ююз4119216 1.5 1015259
30 мая, пн
пн3000:00+8юз411951 0.0 1015226
03:00+6юз38950 0.0 1016169
06:00+9зюз48860 0.0 1018263
09:00+14з68680 0.0 1019908
12:00+16з68561 0.0 10201777
15:00+17з68525 0.0 10202019
18:00+16з47673 0.0 1021370
21:00+11з34814 0.0 102242
31 мая, вт
вт3100:00+10з2281100 0.0 102314
03:00+8з128481 0.0 102410
06:00+12зюз127598 0.0 1024105
09:00+17зюз226165 0.0 1024560
12:00+19зюз2249100 0.0 10241599
15:00+20зсз124615 0.0 10241712
18:00+19всв116138 0.0 102336
21:00+14юв1166100 0.0 102411
1 июня, ср
ср100:00+12юв227386 0.0 102413
03:00+11юв227967 0.0 102416
06:00+14юв257599 0.0 1024158
09:00+19ююв456484 0.0 1024684
12:00+21ююв555697 0.0 10231322
15:00+21ююв5658100 0.0 10221336
18:00+18юв3681100 0.2 1022144
21:00+16юв41082100 0.2 1022205
2 июня, чт
чт200:00+16ю41078100 0.0 1021249
03:00+16ю3782100 0.0 1021175
06:00+16ююз3788100 0.1 1021217
09:00+20ююз4675100 0.2 1021577
12:00+23юз5761100 0.0 10201269
15:00+24юз4660100 0.0 10201506
18:00+23ююз357629 1.4 1019160
21:00+18ююв339083 1.6 101935